EWG14PJ EGPH-EDDS

Flight info

Callsign EWG14PJ
Flight time 1h 39m
Altitude 25000
Route TLA Y96 OTBUN/N0457F350 DCT ERKIT N110 DOLAS DCT NAVPI DCT DODEN DCT TABUM DCT FOLWU DCT UBENO N850 KRH T128 BADSO BADSO2A
Aircraft A320/M-SDE3FGHIRWY/LB1

Departure

Time 2026-04-24 10:41
Airport Edinburgh Airport (EGPH)

Arrival

Time 2026-04-24 12:20
Airport Stuttgart Airport (EDDS)
Time Latitude Longitude Altitude Speed Heading
2026-04-24 10:10 55.94753 -3.36605 101 ft 0 kts 90°
2026-04-24 10:22 55.94753 -3.36606 101 ft 0 kts 90°
2026-04-24 10:30 55.94753 -3.36605 101 ft 0 kts 90°
2026-04-24 10:32 55.94753 -3.36632 101 ft 4 kts 88°
2026-04-24 10:32 55.94751 -3.36680 102 ft 4 kts 77°
2026-04-24 10:32 55.94742 -3.36722 102 ft 4 kts 39°
2026-04-24 10:33 55.94730 -3.36733 101 ft 0 kts 345°
2026-04-24 10:33 55.94730 -3.36732 101 ft 0 kts 345°
2026-04-24 10:34 55.94730 -3.36733 101 ft 0 kts 345°
2026-04-24 10:35 55.94757 -3.36751 103 ft 5 kts 333°
2026-04-24 10:35 55.94799 -3.36780 105 ft 9 kts 355°
2026-04-24 10:35 55.94852 -3.36780 106 ft 6 kts 360°
2026-04-24 10:36 55.94888 -3.36793 108 ft 7 kts 333°
2026-04-24 10:36 55.94927 -3.36842 109 ft 6 kts 312°
2026-04-24 10:36 55.94899 -3.36979 108 ft 14 kts 237°
2026-04-24 10:36 55.94853 -3.37116 109 ft 12 kts 239°
2026-04-24 10:37 55.94807 -3.37251 109 ft 15 kts 239°
2026-04-24 10:37 55.94752 -3.37413 113 ft 13 kts 239°
2026-04-24 10:37 55.94692 -3.37591 115 ft 22 kts 238°
2026-04-24 10:37 55.94607 -3.37841 113 ft 25 kts 238°
2026-04-24 10:38 55.94516 -3.38109 114 ft 26 kts 239°
2026-04-24 10:38 55.94421 -3.38390 114 ft 26 kts 238°
2026-04-24 10:38 55.94349 -3.38600 119 ft 11 kts 239°
2026-04-24 10:38 55.94317 -3.38701 119 ft 8 kts 239°
2026-04-24 10:39 55.94285 -3.38794 122 ft 8 kts 246°
2026-04-24 10:39 55.94301 -3.38882 121 ft 11 kts 317°
2026-04-24 10:39 55.94375 -3.38960 120 ft 13 kts 333°
2026-04-24 10:39 55.94438 -3.38900 120 ft 11 kts 64°
2026-04-24 10:40 55.94486 -3.38758 117 ft 21 kts 59°
2026-04-24 10:40 55.94698 -3.38139 118 ft 93 kts 58°
2026-04-24 10:40 55.95140 -3.36835 114 ft 150 kts 58°
2026-04-24 10:40 55.95730 -3.35108 520 ft 163 kts 58°
2026-04-24 10:41 55.96427 -3.33563 1122 ft 160 kts 38°
2026-04-24 10:41 55.97338 -3.32390 1566 ft 172 kts 39°
2026-04-24 10:41 55.98298 -3.30911 1776 ft 193 kts 43°
2026-04-24 10:41 55.99328 -3.29192 1930 ft 212 kts 44°
2026-04-24 10:42 56.00452 -3.27303 2121 ft 232 kts 44°
2026-04-24 10:42 56.01696 -3.25225 2533 ft 254 kts 44°
2026-04-24 10:42 56.02806 -3.22718 3315 ft 262 kts 65°
2026-04-24 10:42 56.03209 -3.19549 4151 ft 265 kts 93°
2026-04-24 10:43 56.02745 -3.16382 5009 ft 266 kts 121°
2026-04-24 10:43 56.01507 -3.13954 5854 ft 267 kts 148°
2026-04-24 10:43 55.99885 -3.12311 6699 ft 269 kts 153°
2026-04-24 10:43 55.98228 -3.10704 7493 ft 273 kts 153°
2026-04-24 10:44 55.96547 -3.09074 8281 ft 277 kts 153°
2026-04-24 10:44 55.94844 -3.07417 9081 ft 281 kts 153°
2026-04-24 10:44 55.93116 -3.05735 9884 ft 285 kts 153°
2026-04-24 10:44 55.91347 -3.04014 10415 ft 299 kts 152°
2026-04-24 10:45 55.89455 -3.02173 10616 ft 320 kts 152°
2026-04-24 10:45 55.87458 -3.00227 10735 ft 335 kts 152°
2026-04-24 10:45 55.85341 -2.98167 10892 ft 358 kts 152°
2026-04-24 10:45 55.83115 -2.96005 11338 ft 369 kts 152°
2026-04-24 10:46 55.80844 -2.93797 12004 ft 373 kts 152°
2026-04-24 10:46 55.78554 -2.91571 12686 ft 377 kts 152°
2026-04-24 10:46 55.76239 -2.89324 13356 ft 380 kts 152°
2026-04-24 10:46 55.73907 -2.87066 14020 ft 384 kts 152°
2026-04-24 10:47 55.71548 -2.84786 14605 ft 387 kts 152°
2026-04-24 10:47 55.69167 -2.82488 15166 ft 391 kts 152°
2026-04-24 10:47 55.66767 -2.80176 15703 ft 395 kts 152°
2026-04-24 10:47 55.64343 -2.77845 16226 ft 398 kts 152°
2026-04-24 10:48 55.61899 -2.75497 16765 ft 401 kts 152°
2026-04-24 10:48 55.59438 -2.73134 17287 ft 404 kts 152°
2026-04-24 10:48 55.57795 -2.71557 17630 ft 407 kts 152°
2026-04-24 10:48 55.55300 -2.69164 18125 ft 410 kts 152°
2026-04-24 10:49 55.52779 -2.66748 18644 ft 413 kts 152°
2026-04-24 10:49 55.50238 -2.64322 19096 ft 416 kts 152°
2026-04-24 10:49 55.47686 -2.61895 19539 ft 419 kts 152°
2026-04-24 10:49 55.45113 -2.59459 19985 ft 421 kts 152°
2026-04-24 10:50 55.42522 -2.57007 20420 ft 424 kts 152°
2026-04-24 10:50 55.39914 -2.54534 20846 ft 426 kts 152°
2026-04-24 10:50 55.37296 -2.52055 21265 ft 429 kts 152°
2026-04-24 10:50 55.34658 -2.49568 21669 ft 431 kts 152°
2026-04-24 10:51 55.32009 -2.47076 22063 ft 434 kts 152°
2026-04-24 10:51 55.29339 -2.44557 22460 ft 436 kts 151°
2026-04-24 10:51 55.26781 -2.41662 22822 ft 439 kts 142°
2026-04-24 10:51 55.24352 -2.38404 23194 ft 441 kts 142°
2026-04-24 10:52 55.21907 -2.35135 23570 ft 443 kts 142°
2026-04-24 10:52 55.19442 -2.31856 23933 ft 446 kts 142°
2026-04-24 10:52 55.16960 -2.28571 24238 ft 448 kts 142°
2026-04-24 10:52 55.14462 -2.25272 24543 ft 451 kts 142°
2026-04-24 10:53 55.11952 -2.21968 24845 ft 453 kts 142°
2026-04-24 10:53 55.09426 -2.18646 25147 ft 455 kts 142°
2026-04-24 10:53 55.06891 -2.15309 25442 ft 457 kts 142°
2026-04-24 10:53 55.04343 -2.11961 25737 ft 459 kts 142°
2026-04-24 10:54 55.01786 -2.08599 26015 ft 461 kts 142°
2026-04-24 10:54 54.99220 -2.05226 26294 ft 463 kts 142°
2026-04-24 10:54 54.96638 -2.01845 26579 ft 465 kts 142°
2026-04-24 10:54 54.94048 -1.98464 26858 ft 467 kts 142°
2026-04-24 10:55 54.91440 -1.95068 27120 ft 469 kts 142°
2026-04-24 10:55 54.88825 -1.91663 27451 ft 469 kts 142°
2026-04-24 10:55 54.86216 -1.88270 27842 ft 468 kts 142°
2026-04-24 10:55 54.83606 -1.84889 28234 ft 468 kts 142°
2026-04-24 10:56 54.81010 -1.81533 28612 ft 467 kts 142°
2026-04-24 10:56 54.78404 -1.78165 28987 ft 467 kts 142°
2026-04-24 10:56 54.75805 -1.74808 29324 ft 466 kts 142°
2026-04-24 10:56 54.73203 -1.71453 29622 ft 466 kts 142°
2026-04-24 10:57 54.70604 -1.68111 29927 ft 465 kts 142°
2026-04-24 10:57 54.68007 -1.64778 30253 ft 465 kts 142°
2026-04-24 10:57 54.65413 -1.61450 30565 ft 464 kts 142°
2026-04-24 10:57 54.62831 -1.58137 30849 ft 463 kts 142°
2026-04-24 10:58 54.60252 -1.54837 31135 ft 461 kts 142°
2026-04-24 10:58 54.57682 -1.51556 31438 ft 459 kts 142°
2026-04-24 10:58 54.55106 -1.48274 31759 ft 457 kts 142°
2026-04-24 10:58 54.52585 -1.45063 32068 ft 455 kts 142°
2026-04-24 10:59 54.50010 -1.41788 32390 ft 453 kts 142°
2026-04-24 10:59 54.47477 -1.38573 32715 ft 451 kts 143°
2026-04-24 10:59 54.44954 -1.35385 33046 ft 449 kts 143°
2026-04-24 10:59 54.42477 -1.32262 33372 ft 446 kts 143°
2026-04-24 11:00 54.39978 -1.29116 33703 ft 444 kts 143°
2026-04-24 11:00 54.37494 -1.25988 34020 ft 441 kts 143°
2026-04-24 11:00 54.34997 -1.22843 34291 ft 439 kts 143°
2026-04-24 11:00 54.32567 -1.19790 34585 ft 437 kts 143°
2026-04-24 11:01 54.30118 -1.16719 34849 ft 436 kts 143°
2026-04-24 11:01 54.27675 -1.13659 35085 ft 435 kts 143°
2026-04-24 11:01 54.25235 -1.10604 35303 ft 434 kts 143°
2026-04-24 11:02 54.20344 -1.04496 35411 ft 437 kts 144°
2026-04-24 11:02 54.15420 -0.98369 35407 ft 437 kts 144°
2026-04-24 11:03 54.10502 -0.92259 35406 ft 436 kts 144°
2026-04-24 11:03 54.05594 -0.86192 35407 ft 435 kts 144°
2026-04-24 11:04 54.00721 -0.80219 35409 ft 433 kts 145°
2026-04-24 11:04 53.95768 -0.74400 35417 ft 433 kts 146°
2026-04-24 11:05 53.90791 -0.68659 35414 ft 431 kts 146°
2026-04-24 11:05 53.85847 -0.62935 35414 ft 430 kts 146°
2026-04-24 11:06 53.80926 -0.57203 35411 ft 428 kts 146°
2026-04-24 11:06 53.76019 -0.51487 35410 ft 428 kts 146°
2026-04-24 11:07 53.68661 -0.42965 35410 ft 427 kts 146°
2026-04-24 11:07 53.63746 -0.37308 35413 ft 427 kts 146°
2026-04-24 11:08 53.58893 -0.31580 35414 ft 426 kts 140°
2026-04-24 11:08 53.54925 -0.24183 35418 ft 427 kts 128°
2026-04-24 11:09 53.51349 -0.16201 35419 ft 427 kts 128°
2026-04-24 11:09 53.47772 -0.08246 35421 ft 426 kts 128°
2026-04-24 11:10 53.44196 -0.00322 35421 ft 425 kts 129°
2026-04-24 11:10 53.40617 0.07573 35421 ft 425 kts 129°
2026-04-24 11:11 53.37040 0.15448 35419 ft 424 kts 129°
2026-04-24 11:11 53.33458 0.23296 35415 ft 424 kts 129°
2026-04-24 11:12 53.29869 0.31130 35418 ft 423 kts 129°
2026-04-24 11:12 53.26288 0.38944 35422 ft 423 kts 129°
2026-04-24 11:13 53.22703 0.46750 35420 ft 423 kts 129°
2026-04-24 11:13 53.19138 0.54474 35423 ft 422 kts 129°
2026-04-24 11:14 53.15548 0.62221 35419 ft 422 kts 129°
2026-04-24 11:14 53.11953 0.69960 35423 ft 422 kts 129°
2026-04-24 11:15 53.08357 0.77692 35419 ft 422 kts 129°
2026-04-24 11:15 53.04741 0.85435 35420 ft 423 kts 129°
2026-04-24 11:16 53.01119 0.93138 35417 ft 423 kts 130°
2026-04-24 11:16 52.97746 1.01143 35418 ft 426 kts 119°
2026-04-24 11:17 52.95564 1.10313 35408 ft 428 kts 113°
2026-04-24 11:17 52.93473 1.19568 35401 ft 428 kts 114°
2026-04-24 11:18 52.91366 1.28807 35396 ft 429 kts 114°
2026-04-24 11:18 52.89267 1.37998 35392 ft 429 kts 114°
2026-04-24 11:19 52.87149 1.47245 35372 ft 429 kts 114°
2026-04-24 11:19 52.85023 1.56490 35383 ft 429 kts 114°
2026-04-24 11:20 52.82890 1.65727 35387 ft 430 kts 114°
2026-04-24 11:20 52.80743 1.74964 35376 ft 431 kts 114°
2026-04-24 11:21 52.78589 1.84205 35393 ft 431 kts 114°
2026-04-24 11:21 52.76423 1.93455 35378 ft 432 kts 114°
2026-04-24 11:22 52.74252 2.02700 35394 ft 432 kts 114°
2026-04-24 11:22 52.72067 2.11943 35392 ft 432 kts 114°
2026-04-24 11:23 52.69872 2.21180 35392 ft 433 kts 114°
2026-04-24 11:23 52.67668 2.30430 35385 ft 433 kts 114°
2026-04-24 11:24 52.65456 2.39660 35388 ft 434 kts 115°
2026-04-24 11:24 52.63237 2.48908 35378 ft 434 kts 115°
2026-04-24 11:25 52.61007 2.58149 35380 ft 435 kts 115°
2026-04-24 11:25 52.58767 2.67390 35378 ft 435 kts 115°
2026-04-24 11:26 52.56892 2.75074 35373 ft 435 kts 115°
2026-04-24 11:26 52.54593 2.84278 35354 ft 434 kts 119°
2026-04-24 11:27 52.51721 2.92980 35368 ft 434 kts 121°
2026-04-24 11:27 52.48815 3.01663 35360 ft 434 kts 122°
2026-04-24 11:28 52.45904 3.10344 35355 ft 435 kts 122°
2026-04-24 11:28 52.42976 3.19021 35343 ft 435 kts 122°
2026-04-24 11:29 52.40041 3.27706 35337 ft 436 kts 122°
2026-04-24 11:29 52.37098 3.36383 35332 ft 436 kts 122°
2026-04-24 11:30 52.34143 3.45056 35331 ft 437 kts 122°
2026-04-24 11:30 52.31177 3.53730 35333 ft 437 kts 122°
2026-04-24 11:31 52.28198 3.62400 35336 ft 437 kts 122°
2026-04-24 11:31 52.25214 3.71070 35338 ft 438 kts 122°
2026-04-24 11:32 52.22234 3.79680 35340 ft 438 kts 122°
2026-04-24 11:32 52.19246 3.88299 35344 ft 438 kts 122°
2026-04-24 11:33 52.16237 3.96953 35338 ft 439 kts 122°
2026-04-24 11:33 52.13218 4.05603 35333 ft 439 kts 122°
2026-04-24 11:34 52.10210 4.14194 35322 ft 439 kts 122°
2026-04-24 11:34 52.07158 4.22881 35317 ft 440 kts 122°
2026-04-24 11:35 52.04134 4.31447 35310 ft 440 kts 122°
2026-04-24 11:35 52.01078 4.40073 35314 ft 440 kts 123°
2026-04-24 11:36 51.98023 4.48681 35314 ft 441 kts 123°
2026-04-24 11:36 51.94956 4.57298 35313 ft 441 kts 123°
2026-04-24 11:37 51.91878 4.65888 35307 ft 441 kts 123°
2026-04-24 11:37 51.88794 4.74489 35306 ft 441 kts 123°
2026-04-24 11:38 51.85705 4.83090 35297 ft 442 kts 123°
2026-04-24 11:38 51.82589 4.91708 35305 ft 447 kts 126°
2026-04-24 11:39 51.79410 5.00450 35300 ft 457 kts 126°
2026-04-24 11:39 51.76171 5.09365 35303 ft 461 kts 126°
2026-04-24 11:40 51.72910 5.18298 35298 ft 462 kts 126°
2026-04-24 11:40 51.69648 5.27209 35299 ft 462 kts 126°
2026-04-24 11:41 51.66378 5.36110 35298 ft 461 kts 126°
2026-04-24 11:41 51.63097 5.45000 35292 ft 461 kts 126°
2026-04-24 11:42 51.59814 5.53873 35286 ft 461 kts 126°
2026-04-24 11:42 51.56527 5.62728 35286 ft 461 kts 126°
2026-04-24 11:43 51.53229 5.71572 35283 ft 461 kts 126°
2026-04-24 11:43 51.49926 5.80404 35280 ft 461 kts 126°
2026-04-24 11:44 51.46615 5.89214 35280 ft 461 kts 126°
2026-04-24 11:44 51.43299 5.98020 35280 ft 461 kts 126°
2026-04-24 11:45 51.39975 6.06819 35278 ft 461 kts 126°
2026-04-24 11:45 51.36644 6.15606 35274 ft 462 kts 126°
2026-04-24 11:46 51.33310 6.24383 35278 ft 462 kts 126°
2026-04-24 11:46 51.29951 6.33169 35283 ft 462 kts 126°
2026-04-24 11:47 51.26591 6.41920 35283 ft 462 kts 126°
2026-04-24 11:47 51.23236 6.50666 35284 ft 462 kts 126°
2026-04-24 11:48 51.19866 6.59407 35283 ft 463 kts 126°
2026-04-24 11:48 51.16484 6.68141 35285 ft 463 kts 126°
2026-04-24 11:49 51.13294 6.76385 35284 ft 463 kts 125°
2026-04-24 11:49 51.09915 6.85050 35283 ft 463 kts 126°
2026-04-24 11:50 51.06508 6.93752 35276 ft 463 kts 126°
2026-04-24 11:50 51.03099 7.02452 35280 ft 463 kts 125°
2026-04-24 11:51 50.99679 7.11148 35286 ft 464 kts 126°
2026-04-24 11:51 50.96241 7.19842 35284 ft 464 kts 126°
2026-04-24 11:52 50.92822 7.28455 35287 ft 464 kts 126°
2026-04-24 11:52 50.89376 7.37109 35283 ft 464 kts 126°
2026-04-24 11:53 50.85923 7.45768 35269 ft 464 kts 126°
2026-04-24 11:53 50.82466 7.54413 35257 ft 464 kts 125°
2026-04-24 11:54 50.78993 7.63059 35226 ft 465 kts 125°
2026-04-24 11:54 50.75523 7.71674 35218 ft 465 kts 125°
2026-04-24 11:55 50.72048 7.80270 35215 ft 465 kts 125°
2026-04-24 11:55 50.68584 7.88809 35214 ft 465 kts 125°
2026-04-24 11:56 50.65090 7.97387 35211 ft 465 kts 125°
2026-04-24 11:56 50.61513 8.05852 35209 ft 462 kts 131°
2026-04-24 11:57 50.56874 8.12697 35210 ft 455 kts 149°
2026-04-24 11:57 50.51545 8.18060 35209 ft 455 kts 150°
2026-04-24 11:58 50.46214 8.23410 35203 ft 455 kts 150°
2026-04-24 11:58 50.40871 8.28764 35202 ft 455 kts 150°
2026-04-24 11:59 50.35530 8.34106 35202 ft 456 kts 150°
2026-04-24 11:59 50.30162 8.39378 35201 ft 454 kts 154°
2026-04-24 12:00 50.24329 8.43000 35208 ft 451 kts 164°
2026-04-24 12:00 50.18372 8.46073 35187 ft 451 kts 164°
2026-04-24 12:01 50.12410 8.49159 35180 ft 451 kts 163°
2026-04-24 12:01 50.06443 8.52251 35179 ft 452 kts 163°
2026-04-24 12:02 50.00463 8.55342 34635 ft 454 kts 163°
2026-04-24 12:02 49.97463 8.56883 33863 ft 454 kts 163°
2026-04-24 12:02 49.94458 8.58422 33026 ft 455 kts 163°
2026-04-24 12:03 49.91441 8.59964 32216 ft 458 kts 163°
2026-04-24 12:03 49.88402 8.61514 31422 ft 461 kts 163°
2026-04-24 12:03 49.85342 8.63070 30673 ft 464 kts 163°
2026-04-24 12:03 49.82271 8.64632 29879 ft 467 kts 163°
2026-04-24 12:04 49.79174 8.66208 29101 ft 469 kts 163°
2026-04-24 12:04 49.77112 8.67228 28590 ft 470 kts 166°
2026-04-24 12:04 49.73906 8.68260 27851 ft 470 kts 174°
2026-04-24 12:04 49.70641 8.68534 27118 ft 471 kts 183°
2026-04-24 12:05 49.67370 8.68150 26412 ft 472 kts 186°
2026-04-24 12:05 49.64088 8.67690 25724 ft 474 kts 186°
2026-04-24 12:05 49.60793 8.67244 25050 ft 476 kts 186°
2026-04-24 12:05 49.57483 8.66808 24397 ft 478 kts 186°
2026-04-24 12:06 49.54171 8.66377 23750 ft 477 kts 186°
2026-04-24 12:06 49.50880 8.65948 22995 ft 473 kts 186°
2026-04-24 12:06 49.47609 8.65518 22254 ft 470 kts 186°
2026-04-24 12:06 49.44366 8.65084 21530 ft 466 kts 186°
2026-04-24 12:07 49.41141 8.64648 20825 ft 463 kts 186°
2026-04-24 12:07 49.37944 8.64220 20136 ft 459 kts 185°
2026-04-24 12:07 49.34773 8.63796 19463 ft 456 kts 185°
2026-04-24 12:07 49.31648 8.63373 18814 ft 453 kts 185°
2026-04-24 12:08 49.28515 8.62913 18108 ft 450 kts 186°
2026-04-24 12:08 49.25420 8.62427 17375 ft 445 kts 186°
2026-04-24 12:08 49.22351 8.61940 16655 ft 440 kts 186°
2026-04-24 12:08 49.19316 8.61460 16055 ft 436 kts 186°
2026-04-24 12:09 49.16303 8.60984 15632 ft 433 kts 186°
2026-04-24 12:09 49.13303 8.60516 15236 ft 431 kts 186°
2026-04-24 12:09 49.10330 8.60063 14851 ft 429 kts 186°
2026-04-24 12:09 49.07358 8.59620 14469 ft 427 kts 186°
2026-04-24 12:10 49.04438 8.59185 14088 ft 411 kts 186°
2026-04-24 12:10 49.01686 8.58776 13679 ft 386 kts 186°
2026-04-24 12:10 48.99074 8.58505 13263 ft 366 kts 180°
2026-04-24 12:11 48.94223 8.59033 12432 ft 335 kts 176°
2026-04-24 12:11 48.91943 8.59307 12041 ft 322 kts 176°
2026-04-24 12:11 48.89746 8.59567 11647 ft 312 kts 176°
2026-04-24 12:11 48.87597 8.59820 11256 ft 308 kts 176°
2026-04-24 12:12 48.85495 8.60077 10872 ft 306 kts 173°
2026-04-24 12:12 48.82808 8.61322 10357 ft 302 kts 150°
2026-04-24 12:12 48.81627 8.62498 10102 ft 300 kts 139°
2026-04-24 12:12 48.80207 8.64770 9674 ft 295 kts 123°
2026-04-24 12:13 48.79095 8.67334 9271 ft 294 kts 121°
2026-04-24 12:13 48.77961 8.69954 8844 ft 293 kts 122°
2026-04-24 12:13 48.76855 8.72490 8440 ft 291 kts 122°
2026-04-24 12:13 48.75740 8.75044 8045 ft 290 kts 122°
2026-04-24 12:14 48.74628 8.77585 7655 ft 288 kts 122°
2026-04-24 12:14 48.73524 8.80106 7280 ft 286 kts 122°
2026-04-24 12:14 48.72434 8.82594 6980 ft 280 kts 122°
2026-04-24 12:14 48.71384 8.84999 6680 ft 267 kts 122°
2026-04-24 12:15 48.70381 8.87295 6370 ft 255 kts 122°
2026-04-24 12:15 48.69416 8.89505 6053 ft 246 kts 122°
2026-04-24 12:15 48.68487 8.91629 5736 ft 238 kts 122°
2026-04-24 12:15 48.67586 8.93689 5455 ft 232 kts 122°
2026-04-24 12:16 48.66707 8.95698 5150 ft 226 kts 123°
2026-04-24 12:16 48.65849 8.97659 4849 ft 220 kts 121°
2026-04-24 12:16 48.65226 8.99723 4560 ft 212 kts 101°
2026-04-24 12:16 48.65149 9.01922 4253 ft 206 kts 78°
2026-04-24 12:17 48.65500 9.03936 4004 ft 190 kts 71°
2026-04-24 12:17 48.65863 9.05827 3602 ft 192 kts 71°
2026-04-24 12:17 48.66240 9.07791 3181 ft 195 kts 70°
2026-04-24 12:17 48.66616 9.09753 2794 ft 190 kts 70°
2026-04-24 12:18 48.66969 9.11608 2520 ft 177 kts 71°
2026-04-24 12:18 48.67294 9.13314 2286 ft 161 kts 71°
2026-04-24 12:18 48.67590 9.14866 2059 ft 148 kts 71°
2026-04-24 12:18 48.67874 9.16351 1869 ft 145 kts 72°
2026-04-24 12:19 48.68152 9.17821 1673 ft 145 kts 71°
2026-04-24 12:19 48.68433 9.19292 1480 ft 145 kts 72°
2026-04-24 12:19 48.68708 9.20767 1305 ft 143 kts 71°
2026-04-24 12:19 48.68968 9.22074 1289 ft 115 kts 74°
2026-04-24 12:20 48.69124 9.22831 1290 ft 33 kts 69°
2026-04-24 12:20 48.69231 9.23052 1287 ft 21 kts 43°
2026-04-24 12:20 48.69309 9.23154 1286 ft 14 kts 23°
2026-04-24 12:20 48.69330 9.23049 1287 ft 14 kts 252°
2026-04-24 12:21 48.69296 9.22888 1285 ft 20 kts 252°
2026-04-24 12:21 48.69248 9.22638 1289 ft 29 kts 254°
2026-04-24 12:21 48.69199 9.22377 1289 ft 20 kts 254°
2026-04-24 12:21 48.69152 9.22133 1285 ft 28 kts 253°
2026-04-24 12:22 48.69092 9.21813 1285 ft 35 kts 254°
2026-04-24 12:22 48.69035 9.21497 1285 ft 29 kts 255°
2026-04-24 12:22 48.68970 9.21171 1287 ft 35 kts 253°
2026-04-24 12:22 48.68911 9.20857 1285 ft 28 kts 256°
2026-04-24 12:23 48.68856 9.20568 1287 ft 30 kts 254°
2026-04-24 12:23 48.68803 9.20297 1286 ft 21 kts 253°
2026-04-24 12:23 48.68770 9.20112 1289 ft 18 kts 254°
2026-04-24 12:23 48.68777 9.19975 1288 ft 17 kts 308°
2026-04-24 12:24 48.68854 9.19885 1285 ft 14 kts 341°
2026-04-24 12:24 48.68883 9.19792 1285 ft 11 kts 254°
2026-04-24 12:24 48.68868 9.19713 1287 ft 0 kts 253°
2026-04-24 12:25 48.68868 9.19710 1287 ft 2 kts 254°
2026-04-24 12:25 48.68854 9.19635 1287 ft 12 kts 253°
2026-04-24 12:25 48.68831 9.19520 1290 ft 10 kts 254°
2026-04-24 12:25 48.68847 9.19449 1288 ft 4 kts 342°
2026-04-24 12:26 48.68869 9.19441 1286 ft 6 kts 344°
2026-04-24 12:26 48.68885 9.19434 1288 ft 1 kts 344°
2026-04-24 12:26 48.68895 9.19430 1287 ft 0 kts 344°